Regional Weather Roundup
Issued by NWS Cleveland, OH

Home | Current Version | Previous Version | Graphics & Text | Print | Product List | Glossary On
Versions: 1 2 3 4 5 6 7 8 9 10 11 12 13 14 15 16 17 18 19 20 21 22 23 24 25 26 27 28 29 30 31 32 33 34 35 36 37 38 39 40 41 42 43 44 45 46 47 48 49 50
795
ASUS41 KCLE 230112
RWRCLE
OHIO REGIONAL WEATHER ROUNDUP
NATIONAL WEATHER SERVICE WILMINGTON, OH
900 PM EDT THU JUN 22 2017

NOTE: "FAIR" INDICATES FEW OR NO CLOUDS BELOW 12,000 FEET WITH NO
SIGNIFICANT WEATHER AND/OR OBSTRUCTIONS TO VISIBILITY.

OHZ001>008-015>018-024>027-034-035-043-044-230200-
   NORTHWEST OHIO

CITY           SKY/WX    TMP DP  RH WIND       PRES   REMARKS
DEFIANCE       MOCLDY    80  66  62 SW14G25   29.82R
FINDLAY        FAIR      81  65  58 SW16G31   29.84R
TOLEDO EXPRESS CLOUDY    79  69  71 SW13      29.81R
TOLEDO EXEC    CLOUDY    80  70  71 SW13G22   29.83R
LIMA           FAIR      78  67  68 S14G24    29.86S
$$

OHZ009>014-019>023-028>033-038-089-230200-
   NORTHEAST OHIO

CITY           SKY/WX    TMP DP  RH WIND       PRES   REMARKS
CLE-HOPKINS    MOCLDY    84  68  58 S13       29.86S
CLE-LAKEFRONT  FAIR      84  66  54 S17G25    29.83S
CUY CO. ARPT   MOCLDY    84  68  58 SW9       29.85F
LORAIN-ELYRIA  FAIR      81  63  54 SW13      29.86R
ASHTABULA      FAIR      79  67  66 S10       29.87S
AKRON-CANTON   MOCLDY    79  67  66 S12       29.92R
WOOSTER        FAIR      79  68  69 S10       29.91S
MANSFIELD      FAIR      78  68  71 S16G24    29.90S
YOUNGSTOWN     CLOUDY    79  66  64 S9G18     29.91S
$$

OHZ042-051>053-060>062-070>072-077>081-230200-
  SOUTHWEST OHIO

CITY           SKY/WX    TMP DP  RH WIND       PRES   REMARKS
CINC-COVINGTON LGT RAIN  72  70  93 S13       29.89F
CINC-LUNKEN    LGT RAIN  72  71  97 S9        29.89F
HAMILTON       LGT RAIN  73  71  93 VRB5      29.89F
DAYTON         MOCLDY    74  67  78 SW14      29.90S
WRIGHT-PAT AFB MOCLDY    76  69  79 S15       29.89F
DAYTON GENERAL LGT RAIN  73  68  84 S18       29.89F
WILMINGTON     CLOUDY    72  69  90 S8        29.91F
$$

OHZ036-037-039>041-045>050-054>059-063>069-073>076-082>088-230200-
  CENTRAL AND SOUTHEAST OHIO

CITY           SKY/WX    TMP DP  RH WIND       PRES   REMARKS
COLUMBUS       CLOUDY    78  67  68 SW16G24   29.91S
OSU AIRPORT    FAIR      77  67  71 SW17G31   29.91R
BOLTON FIELD   NOT AVBL
RICKENBACK AFB FAIR      76  68  75 S15G23    29.91F
NEWARK         MOCLDY    79  67  66 SW12      29.92R
MARION         FAIR      79  65  62 SW13G25   29.89S
LANCASTER      FAIR      76  68  76 S14G20    29.93S
ZANESVILLE     FAIR      78  68  71 SW8       29.93S
NEW PHILLY     FAIR      79  70  74 SE5       29.92S
$$




USA.gov is the U.S. government's official web portal to all federal, state and local government web resources and services.